Weather History for Monroe, NC

Change the Weather History Date:

Sunday, September 15, 2013

  Actual Average (KCLT) Record (KCLT)
Temperature  
Mean Temperature 70 °F 71 °F  
Max Temperature 82 °F 82 °F 96 °F (1991)
Min Temperature 59 °F 61 °F 46 °F (1985)
Degree Days  
Heating Degree Days 0 0  
Month to date heating degree days 0  
Since 1 July heating degree days 0  
Cooling Degree Days 5 7  
Month to date cooling degree days 129  
Year to date cooling degree days 1406  
Growing Degree Days 20 (Base 50)    
Moisture  
Dew Point 60 °F    
Average Humidity 72    
Maximum Humidity 86    
Minimum Humidity 52    
Precipitation  
Precipitation 0.00 in 0.10 in 0.99 in (1976)
Month to date precipitation 1.60  
Year to date precipitation 30.20  
Snow  
Snow 0.00 in 0.00 in 0.00 in ()
Month to date snowfall 0.0  
Since 1 July snowfall 0.0  
Since 1 September snowfall 0.0  
Snow Depth -    
Sea Level Pressure  
Sea Level Pressure 30.17 in    
Wind  
Wind Speed 4 mph (NE)    
Max Wind Speed 7 mph    
Max Gust Speed -    
Visibility 10 miles    
Events      
T = Trace of Precipitation, MM = Missing Value Source: NWS Daily Summary

Daily Weather History Graph

Daily Weather History Graph

Search for Another Location

Airport:

Trip Planner

Search our weather history database for the weather conditions in past years. The results will help you decide how hot, cold, wet, or windy it might be!

Date:

Astronomy

Sep. 15, 2013 Rise Set
Actual Time 7:05 AM EDT 7:29 PM EDT
Civil Twilight 6:40 AM EDT 7:54 PM EDT
Nautical Twilight 6:10 AM EDT 8:24 PM EDT
Astronomical Twilight 5:40 AM EDT 8:54 PM EDT
Moon 4:48 PM EDT (9/15) 2:49 AM EDT (9/15)
Length of Visible Light 13h 14m
Length of Day
12h 23m
Waxing Gibbous, 82% of the Moon is Illuminated
Sep 15
Waxing Gibbous
Sep 19
Full
Sep 26
Last Quarter
Oct 4
New
Oct 11
First Quarter

Hourly Weather History & Observations

Time (EDT) Temp. Heat Index Dew Point Humidity Pressure Visibility Wind Dir Wind Speed Gust Speed Precip Events Conditions
12:53 AM 63.0 °F - 55.0 °F 75% 30.15 in 10.0 mi ENE 3.5 mph - N/A   Clear
1:53 AM 60.1 °F - 55.0 °F 83% 30.15 in 10.0 mi NE 5.8 mph - N/A   Clear
2:53 AM 60.1 °F - 55.0 °F 83% 30.15 in 10.0 mi NE 5.8 mph - N/A   Overcast
3:53 AM 60.1 °F - 55.9 °F 86% 30.17 in 10.0 mi NE 5.8 mph - N/A   Mostly Cloudy
4:53 AM 60.1 °F - 55.0 °F 83% 30.17 in 10.0 mi NE 3.5 mph - N/A   Overcast
5:53 AM 59.0 °F - 54.0 °F 83% 30.18 in 10.0 mi ENE 4.6 mph - N/A   Mostly Cloudy
6:53 AM 60.1 °F - 55.0 °F 83% 30.19 in 10.0 mi NE 6.9 mph - N/A   Overcast
7:53 AM 60.1 °F - 55.0 °F 83% 30.22 in 10.0 mi NE 5.8 mph - N/A   Overcast
8:53 AM 64.0 °F - 57.0 °F 78% 30.22 in 10.0 mi NE 5.8 mph - N/A   Overcast
9:53 AM 68.0 °F - 59.0 °F 73% 30.23 in 10.0 mi ENE 4.6 mph - N/A   Mostly Cloudy
10:53 AM 73.0 °F - 61.0 °F 66% 30.24 in 10.0 mi Calm Calm - N/A   Mostly Cloudy
11:53 AM 75.9 °F - 62.1 °F 62% 30.23 in 10.0 mi Variable 5.8 mph - N/A   Clear
12:53 PM 79.0 °F - 63.0 °F 58% 30.21 in 10.0 mi Variable 3.5 mph - N/A   Scattered Clouds
1:53 PM 79.0 °F - 63.0 °F 58% 30.20 in 10.0 mi Variable 5.8 mph - N/A   Overcast
2:53 PM 79.0 °F - 63.0 °F 58% 30.17 in 10.0 mi North 5.8 mph - N/A   Overcast
3:53 PM 81.0 °F 82.2 °F 63.0 °F 54% 30.14 in 10.0 mi North 4.6 mph - N/A   Partly Cloudy
4:53 PM 81.0 °F 81.9 °F 62.1 °F 52% 30.13 in 10.0 mi Calm Calm - N/A   Mostly Cloudy
5:53 PM 81.0 °F 82.2 °F 63.0 °F 54% 30.13 in 10.0 mi NE 3.5 mph - N/A   Partly Cloudy
6:53 PM 79.0 °F - 64.0 °F 60% 30.12 in 10.0 mi Calm Calm - N/A   Clear
7:53 PM 73.0 °F - 64.0 °F 73% 30.13 in 10.0 mi Calm Calm - N/A   Partly Cloudy
8:53 PM 72.0 °F - 64.0 °F 76% 30.15 in 10.0 mi Calm Calm - N/A   Scattered Clouds
9:53 PM 72.0 °F - 64.0 °F 76% 30.15 in 10.0 mi Calm Calm - N/A   Scattered Clouds
10:53 PM 70.0 °F - 64.0 °F 81% 30.15 in 10.0 mi Calm Calm - N/A   Clear
11:53 PM 70.0 °F - 64.0 °F 81% 30.15 in 10.0 mi Calm Calm - N/A   Partly Cloudy